Change the Weather History Date:

Monday, November 26, 2012

  Actual Average Record
Temperature  
Mean Temperature 52 °F -  
Max Temperature 64 °F 68 °F 84 °F (1986)
Min Temperature 39 °F 51 °F 36 °F (1991)
Degree Days  
Heating Degree Days 14    
Growing Degree Days 2 (Base 50)    
Moisture  
Dew Point 44 °F    
Average Humidity 73    
Maximum Humidity 93    
Minimum Humidity 37    
Precipitation  
Precipitation 0.00 in - - ()
Sea Level Pressure  
Sea Level Pressure 30.22 in    
Wind  
Wind Speed 3 mph (NNE)    
Max Wind Speed 10 mph    
Max Gust Speed -    
Visibility 10 miles    
Events      
Averages and records for this station are not official NWS values.
T = Trace of Precipitation, MM = Missing Value Source: NWS Daily Summary

Daily Weather History Graph

Daily Weather History Graph

Search for Another Location

Airport or City:

Trip Planner

Search our weather history database for the weather conditions in past years. The results will help you decide how hot, cold, wet, or windy it might be!

Date:

Astronomy

Nov. 26, 2012 Rise Set
Actual Time 6:59 AM EST 5:25 PM EST
Civil Twilight 6:34 AM EST 5:51 PM EST
Nautical Twilight 6:04 AM EST 6:20 PM EST
Astronomical Twilight 5:35 AM EST 6:49 PM EST
Moon 4:13 PM EST (11/26) 5:13 AM EST (11/26)
Length of Visible Light 11h 17m
Length of Day
10h 25m
Waxing Gibbous, 97% of the Moon is Illuminated
Nov 26
Waxing Gibbous
Nov 28
Full
Dec 6
Last Quarter
Dec 13
New
Dec 20
First Quarter

Hourly Weather History & Observations

Time (EST) Temp. Windchill Dew Point Humidity Pressure Visibility Wind Dir Wind Speed Gust Speed Precip Events Conditions
12:58 AM 41.0 °F 39.0 °F 37.9 °F 89% 30.18 in 10.0 mi West 3.5 mph - N/A   Clear
1:58 AM 39.9 °F - 37.0 °F 89% 30.18 in 10.0 mi Calm Calm - N/A   Clear
2:58 AM 39.9 °F - 37.0 °F 89% 30.18 in 10.0 mi Calm Calm - N/A   Clear
3:58 AM 39.0 °F - 37.0 °F 93% 30.19 in 10.0 mi Calm Calm - N/A   Clear
4:58 AM 39.9 °F 37.8 °F 37.0 °F 89% 30.20 in 10.0 mi WNW 3.5 mph - N/A   Clear
5:58 AM 39.9 °F - 37.0 °F 89% 30.20 in 10.0 mi Calm Calm - N/A   Clear
6:58 AM 39.9 °F - 37.0 °F 89% 30.22 in 10.0 mi Calm Calm - N/A   Clear
7:58 AM 41.0 °F - 37.9 °F 89% 30.24 in 10.0 mi Calm Calm - N/A   Clear
8:58 AM 54.0 °F - 43.0 °F 66% 30.26 in 10.0 mi Calm Calm - N/A   Clear
9:58 AM 62.1 °F - 37.9 °F 41% 30.27 in 10.0 mi Variable 3.5 mph - N/A   Clear
10:58 AM 64.0 °F - 37.0 °F 37% 30.27 in 10.0 mi ENE 5.8 mph - N/A   Clear
11:58 AM 64.9 °F - 44.1 °F 47% 30.25 in 10.0 mi NNE 6.9 mph - N/A   Clear
12:58 PM 64.9 °F - 48.0 °F 54% 30.23 in 10.0 mi NNE 8.1 mph - N/A   Clear
1:58 PM 64.9 °F - 46.9 °F 52% 30.21 in 10.0 mi NE 9.2 mph - N/A   Clear
2:58 PM 64.9 °F - 48.9 °F 56% 30.20 in 10.0 mi ENE 10.4 mph - N/A   Clear
3:58 PM 64.0 °F - 48.0 °F 56% 30.20 in 10.0 mi ENE 8.1 mph - N/A   Clear
4:58 PM 63.0 °F - 50.0 °F 63% 30.20 in 10.0 mi NNE 5.8 mph - N/A   Clear
5:58 PM 60.1 °F - 50.0 °F 69% 30.20 in 10.0 mi NNE 4.6 mph - N/A   Clear
6:58 PM 59.0 °F - 51.1 °F 75% 30.21 in 10.0 mi Calm Calm - N/A   Clear
7:58 PM 55.9 °F - 50.0 °F 80% 30.23 in 10.0 mi Calm Calm - N/A   Clear
8:58 PM 53.1 °F - 48.9 °F 86% 30.23 in 10.0 mi Calm Calm - N/A   Clear
9:58 PM 53.1 °F - 48.9 °F 86% 30.23 in 10.0 mi Calm Calm - N/A   Clear
10:58 PM 53.1 °F - 48.9 °F 86% 30.22 in 10.0 mi Calm Calm - N/A   Clear
11:58 PM 52.0 °F - 48.9 °F 89% 30.21 in 10.0 mi Calm Calm - N/A   Clear